Location: Unspecified
(0.0000°N, 0.0000°E)
Time: 04:48:38
(UTC+00:00)

ISS - Pass Details

Date: 17 March 2018
Orbit: 403 x 408 km, 51.6° (Epoch: 21 September)

Event Time Altitude Azimuth Distance (km) Brightness Sun altitude
Rises 19:49:31 0° 219° (SW) 2,356 0.6 -25.3°
Reaches altitude 10° 19:51:37 10° 222° (SW) 1,494 -0.5 -25.8°
Enters shadow 19:52:52 21° 225° (SW) 1,003 -1.4 -26.1°
